www.pogodaiklimat.ru

Погода и климат >> Архив погоды >> Пакистан >> Мир Пур Кхас


ПОГОДА в Мир Пур Кхас

  • Прогноз погоды в Мир Пур Кхас
  • Монитор погоды в Мир Пур Кхас

АРХИВ ПОГОДЫ в Мир Пур Кхас

Время (UTC), дата Ветер
(напр.,м/с)
 
Видим.   Явления Облачность Т
(С)
Тd
(С)
f
(%)
Тe
(С)
Тes
(С)
Комфортность P
(гПа)
Po
(гПа)
Тmin
(С)
Tmax
(С)
R
(мм)
R24
(мм)
S
(см)
03 14.05 ЮЗ 3 4000 м ясно +27.0 +17.6 56 +31 +36 душно 1007.4 1005.5 +23.5
06 14.05 ЮЗ 3 4000 м ясно +34.0 +18.9 41 +39 +55 опасность
солнечного
удара
1009.1 1007.4
12 14.05 ЮЗ 2 4000 м ясно +41.0 +19.8 30 +46 +51 опасность
перегрева
1004.3 1002.6 +41.5
15 14.05 ЮЗ 2 4000 м ясно +35.0 +20.2 42 +41 +41 опасность
перегрева
1006.0 1004.1
18 14.05 ЮЗ 2 4000 м ясно +30.0 +20.3 56 +37 +37 очень
душно
1009.3 1007.4
21 14.05 ЮЗ 2 4000 м ясно +26.0 +19.9 69 +32 +32 очень
душно
1007.2 1005.2
00 15.05 ЮЗ 2 4000 м ясно +23.0 +19.1 79 +29 +29 очень
душно
1006.5 1004.6
03 15.05 ЮЗ 3 4000 м ясно +26.0 +19.9 69 +32 +36 очень
душно
1007.6 1005.7 +22.5
06 15.05 ЮЗ 2 4000 м ясно +35.0 +19.4 40 +40 +60 опасность
солнечного
удара
1008.6 1006.9
09 15.05 ЮЗ 2 4000 м ясно +41.5 +19.5 28 +46 +65 опасность
перегрева
1005.4 1003.5
12 15.05 ЮЗ 2 4000 м ясно +41.5 +19.5 28 +46 +50 опасность
перегрева
1003.4 1001.7 +42.0
15 15.05 ЮЗ 3 4000 м ясно +35.0 +18.3 37 +39 +39 очень
душно
1005.6 1003.7
18 15.05 ЮЗ 3 4000 м ясно +30.0 +18.5 50 +35 +35 очень
душно
1008.4 1006.5
21 15.05 ЮЗ 3 4000 м ясно +27.0 +17.6 56 +31 +31 душно 1006.6 1004.7
00 16.05 ЮЗ 3 4000 м ясно +24.0 +17.6 67 +28 +28 душно 1006.0 1004.1
03 16.05 ЮЗ 3 4000 м 3/0
[Ac trans]
+27.0 +17.6 56 +31 +35 душно 1007.4 1005.5 +23.5
06 16.05 ЮЗ 3 4000 м ясно +35.0 +18.3 37 +39 +55 опасность
солнечного
удара
1009.1 1007.4
09 16.05 ЮЗ 3 4000 м ясно +41.0 +18.8 28 +45 +60 опасность
перегрева
1005.2 1003.3
12 16.05 ЮЗ 3 4000 м ясно +41.0 +18.8 28 +45 +49 опасность
перегрева
1003.0 1001.3 +41.5
15 16.05 ЮЗ 3 4000 м ясно +35.0 +20.2 42 +41 +41 опасность
перегрева
1006.0 1004.1
18 16.05 ЮЗ 3 4000 м ясно +30.0 +20.3 56 +37 +37 очень
душно
1009.3 1007.4
21 16.05 ЮЗ 3 4000 м ясно +26.0 +19.9 69 +32 +32 очень
душно
1007.3 1005.3
00 17.05 ЮЗ 3 4000 м ясно +23.0 +19.1 79 +29 +29 очень
душно
1006.5 1004.6
03 17.05 ЮЗ 3 4000 м ясно +26.0 +19.9 69 +32 +36 очень
душно
1007.6 1005.7 +22.5
06 17.05 ЮЗ 2 4000 м 3/0
[Ci fib]
+35.0 +19.4 40 +40 +59 опасность
солнечного
удара
1008.6 1006.9
09 17.05 ЮЗ 2 4000 м 3/0
[Ac trans]
+40.0 +19.3 30 +44 +60 опасность
перегрева
1006.0 1004.1
12 17.05 ЮЗ 2 4000 м 3/0
[Ac trans]
+41.0 +19.8 30 +46 +50 опасность
перегрева
1003.4 1001.7 +41.5
15 17.05 ЮЗ 2 4000 м ясно +35.5 +19.9 40 +41 +41 опасность
перегрева
1004.5 1002.6
18 17.05 ЮЗ 2 4000 м ясно +29.0 +20.8 61 +36 +36 очень
душно
1006.8 1004.9
21 17.05 ЮЗ 2 4000 м ясно +25.0 +19.6 72 +30 +30 душно 1005.1 1003.1
00 18.05 ЮЗ 2 4000 м ясно +24.0 +19.4 75 +29 +29 душно 1005.1 1003.2
03 18.05 ЮЗ 2 4000 м ясно +27.0 +20.2 66 +33 +39 очень
душно
1005.7 1003.8 +23.5
06 18.05 ЮЗ 2 4000 м ясно +34.0 +18.9 41 +39 +58 опасность
солнечного
удара
1007.1 1005.4
09 18.05 ЮЗ 2 4000 м ясно +39.0 +18.9 31 +43 +62 опасность
перегрева
1005.4 1003.5
12 18.05 ЮЗ 2 4000 м ясно +40.0 +19.3 30 +44 +49 опасность
перегрева
1003.9 1002.2 +40.5
15 18.05 ЮЗ 2 4000 м ясно +34.0 +19.9 44 +40 +40 очень
душно
1005.3 1003.4
18 18.05 ЮЗ 2 4000 м ясно +30.0 +19.4 53 +36 +36 очень
душно
1007.6 1005.7
21 18.05 ЮЗ 2 4000 м ясно +27.0 +18.5 60 +32 +32 очень
душно
1006.1 1004.2
00 19.05 ЮЗ 2 4000 м ясно +24.0 +17.6 67 +28 +28 душно 1005.7 1003.8
03 19.05 ЮЗ 2 4000 м 3/0
[Ci fib]
+27.0 +18.5 60 +32 +37 очень
душно
1006.7 1004.8 +23.5
06 19.05 ЮЗ 2 4000 м 3/0
[Ci fib]
+35.0 +19.9 41 +41 +59 опасность
перегрева
1008.2 1006.5
09 19.05 ЮЗ 2 4000 м 4/0
[Ci fib]
+41.0 +18.8 28 +45 +62 опасность
перегрева
1005.7 1003.8
12 19.05 ЮЗ 2 4000 м 5/0
[Ci fib]
+40.0 +19.3 30 +44 +48 опасность
перегрева
1004.9 1003.2 +41.5
15 19.05 ЮЗ 2 4000 м 4/0
[Ci fib]
+33.0 +20.4 48 +40 +40 очень
душно
1006.7 1004.8
18 19.05 ЮЗ 2 4000 м 4/0
[Ci fib]
+29.0 +19.9 58 +35 +35 очень
душно
1007.9 1006.0
21 19.05 ЮЗ 2 4000 м 4/0
[Ci fib]
+26.0 +19.1 66 +31 +31 очень
душно
1006.3 1004.3
00 20.05 ЮЗ 2 4000 м 4/0
[Ci fib]
+23.0 +18.3 75 +29 +29 очень
душно
1005.8 1003.9
03 20.05 ЮЗ 2 4000 м ясно +26.0 +19.1 66 +31 +37 очень
душно
1006.7 1004.8 +22.5
06 20.05 ЮЗ 1 4000 м ясно +34.0 +18.9 41 +39 +62 опасность
солнечного
удара
1008.5 1006.8
09 20.05 ЮЗ 2 4000 м ясно +39.0 +18.9 31 +43 +62 опасность
перегрева
1006.0 1004.1
12 20.05 ЮЗ 2 4000 м 3/0
[Ac trans]
+39.0 +18.9 31 +43 +47 опасность
перегрева
1005.0 1003.3 +39.5
00 21.05 ЮЗ 2 4000 м ясно +24.0 +17.6 67 +28 +28 душно 1005.7 1003.8

 

Местоположение метеостанции Мир Пур Кхас (Пакистан): широта 25.52 долгота 68.96 высота над уровнем моря 17 м.

В архиве по умолчанию представлена погода в Мир Пур Кхас за последнюю неделю. Архивные данные за месяц целиком и за предыдущие месяцы, начиная с января 2011 года, Вы можете получить, выбрав интересующий диапазон дат из раскрывающегося списка и нажав кнопку "Ввод!".


*Определитесь, кто Вы:
робот инопланетянин человек

Внимание! Время в таблицах - всемирное. Для получения местного времени необходимо прибавить поправку, которая равна 5 ч.

Смотрите также архив погоды в соседних городах и на ближайших метеорологических станциях:

Погода в Хайдарабате (Пакистан) (56 км)
Погода в Сакранде (Пакистан) (82 км)
Погода в Чоре (Пакистан) (82 км)
Погода в Бадине (Пакистан) (99 км)
Погода в Навабшахе (Пакистан) (100 км)
Погода в Митхи (Пакистан) (120 км)
Погода в Татте (Пакистан) (137 км)
Погода в Пад Идан (Пакистан) (170 км)
Погода в Карачи (Пакистан) (197 км)
Погода в Мохенджо-Даро (Пакистан) (217 км)

Пояснения к столбцам:

Ветер - указаны скорость ветра в м/с - средняя за 10 мин, порывы в срок и между сроками (в фигурных скобках) и направление, откуда дует ветер: С - северный, СВ - северо-восточный, В - восточный, ЮВ - юго-восточный, Ю - южный, ЮЗ - юго-западный, З - западный, СЗ - северо-западный.
Видимость - горизонтальная дальность видимости в метрах или километрах. При видимости от 1 до 10 км при отсутствии осадков обычно наблюдается дымка, при ухудшении видимости до 1 км и менее - туман. В сухую погоду видимость может ухудшаться дымом, пылью или мглою.
Явления - указаны атмосферные явления, наблюдавшиеся в срок или в последний час перед сроком; фигурными скобками обозначены явления, наблюдавшиеся между сроками (за 1-3 часа до срока); квадратными скобками обозначены град или гололедные отложения с указанием их диаметра в мм.
Облачность - указаны через наклонную черту общая и нижняя облачность в баллах и высота нижней границы облаков в метрах; квадратными скобками обозначены формы облаков: Ci - перистые, Cs - перисто-слоистые, Cc - перисто-кучевые, Ac - высококучевые, As - высокослоистые, Sc - слоисто-кучевые, Ns - слоисто-дождевые, Cu - кучевые, Cb - кучево-дождевые. Подробнее классификацию облаков см. в Атласе облаков (PDF).
T - Температура воздуха - температура, измеренная на высоте 2 м над землей.
Td - Температура точки росы - температура, при понижении до которой содержащийся в воздухе водяной пар достигнет насыщения.
f - Относительная влажность воздуха - влажноcть воздуха, измеренная на высоте 2 м над землей.
Te - Эффективная температура - температура, которую ощущает одетый по сезону человек в тени. Характеристика душности погоды. При расчете учитывается влияние влажности воздуха и скорости ветра на теплоощущения человека.
Tes - Эффективная температура на солнце - температура, которую ощущает человек, с поправкой на солнечный нагрев. Характеристика знойности погоды. Зависит от высоты солнца над горизонтом, облачности и скорости ветра. Ночью, в пасмурную погоду, а также при ветре 12 м/с и более поправка равна нулю.
P - Атмосферное давление - приведенное к уровню моря атмосферное давление.
Po - Атмосферное давление - измеренное на уровне метеостанции атмосферное давление.
Tmin - Минимальная температура - минимум температуры воздуха на высоте 2 м над землей.
Tmax - Максимальная температура - максимум температуры воздуха на высоте 2 м над землей.
R - Количество осадков - Количество выпавших осадков за период времени, мм. При наведении курсора мыши на число - период времени, за который выпало указанное количество осадков.
R24 - Количество осадков - Количество выпавших осадков за 24 часа, мм.
S - Снежный покров - Высота снежного покрова, см. При наведении курсора мыши на число - состояние снежного покрова и степень покрытия местности в баллах.